LOT136 LTFM-EPWA

Flight info

Callsign LOT136
Flight time N/A
Altitude 34000
Route IBLAX1E/36 IBLAX P727 BGS L622 KOMAN DCT KENIN DCT LENOV DCT ORTEB DCT KONZI DCT LOGDA
Aircraft B738/M-SDE2E3FGHIRWXY/LB1

Departure

Time 2026-05-01 13:01
Airport İstanbul Airport (LTFM)

Arrival

Time N/A
Airport Warsaw Chopin Airport (EPWA)
Time Latitude Longitude Altitude Speed Heading
2026-05-01 12:24 41.26441 28.74654 333 ft 0 kts 107°
2026-05-01 12:48 41.26442 28.74649 333 ft 1 kts 107°
2026-05-01 12:48 41.26446 28.74633 329 ft 2 kts 112°
2026-05-01 12:48 41.26453 28.74613 333 ft 2 kts 120°
2026-05-01 12:49 41.26463 28.74596 331 ft 2 kts 144°
2026-05-01 12:49 41.26478 28.74589 329 ft 2 kts 188°
2026-05-01 12:49 41.26487 28.74591 329 ft 0 kts 197°
2026-05-01 12:52 41.26434 28.74565 330 ft 9 kts 217°
2026-05-01 12:52 41.26437 28.74487 329 ft 11 kts 323°
2026-05-01 12:53 41.26603 28.74467 333 ft 14 kts
2026-05-01 12:53 41.26701 28.74465 330 ft 14 kts 357°
2026-05-01 12:53 41.26796 28.74465 331 ft 13 kts
2026-05-01 12:54 41.26884 28.74467 331 ft 12 kts
2026-05-01 12:54 41.26956 28.74477 333 ft 9 kts 24°
2026-05-01 12:54 41.26972 28.74547 333 ft 8 kts 90°
2026-05-01 12:55 41.26971 28.74706 333 ft 9 kts 88°
2026-05-01 12:55 41.26975 28.74788 331 ft 10 kts 87°
2026-05-01 12:55 41.26977 28.74896 333 ft 14 kts 89°
2026-05-01 12:56 41.26978 28.75036 333 ft 15 kts 89°
2026-05-01 12:56 41.26978 28.75130 333 ft 0 kts 90°
2026-05-01 12:56 41.26978 28.75139 333 ft 5 kts 90°
2026-05-01 12:57 41.26980 28.75210 333 ft 12 kts 88°
2026-05-01 12:57 41.26890 28.75375 333 ft 17 kts 180°
2026-05-01 12:57 41.26765 28.75377 333 ft 19 kts 180°
2026-05-01 12:58 41.26636 28.75382 329 ft 18 kts 181°
2026-05-01 12:58 41.26518 28.75383 333 ft 17 kts 174°
2026-05-01 12:58 41.26431 28.75425 330 ft 12 kts 117°
2026-05-01 12:59 41.26425 28.75520 330 ft 0 kts 89°
2026-05-01 13:00 41.26425 28.75535 332 ft 6 kts 89°
2026-05-01 13:00 41.26437 28.75638 332 ft 14 kts 59°
2026-05-01 13:01 41.26654 28.75664 331 ft 50 kts
2026-05-01 13:01 41.27234 28.75655 330 ft 116 kts 359°
2026-05-01 13:01 41.29288 28.75594 1446 ft 147 kts
2026-05-01 13:02 41.30221 28.75498 2630 ft 126 kts
2026-05-01 13:07 41.58710 28.65536 14208 ft 306 kts 323°
2026-05-01 13:07 41.60479 28.63896 14781 ft 312 kts 323°
2026-05-01 13:07 41.62273 28.62232 15353 ft 317 kts 322°
2026-05-01 13:08 41.64080 28.60556 15945 ft 323 kts 322°
2026-05-01 13:08 41.65936 28.58833 16538 ft 327 kts 322°
2026-05-01 13:08 41.67824 28.57078 17145 ft 332 kts 322°
2026-05-01 13:08 41.69736 28.55301 17779 ft 336 kts 322°
2026-05-01 13:09 41.71667 28.53506 18403 ft 339 kts 322°
2026-05-01 13:09 41.73613 28.51697 18967 ft 342 kts 322°
2026-05-01 13:09 41.75577 28.49868 19529 ft 345 kts 322°
2026-05-01 13:09 41.77555 28.48023 20105 ft 347 kts 321°
2026-05-01 13:10 41.79521 28.46189 20681 ft 349 kts 321°
2026-05-01 13:10 41.81539 28.44305 21272 ft 351 kts 322°
2026-05-01 13:10 41.83524 28.42452 21861 ft 352 kts 322°
2026-05-01 13:10 41.85524 28.40582 22478 ft 352 kts 321°
2026-05-01 13:11 41.87540 28.38696 23113 ft 352 kts 321°
2026-05-01 13:11 41.89550 28.36813 23750 ft 352 kts 321°
2026-05-01 13:11 41.91564 28.34926 24204 ft 355 kts 321°
2026-05-01 13:11 41.93608 28.33005 24217 ft 371 kts 322°
2026-05-01 13:12 41.95756 28.30986 24329 ft 383 kts 322°
2026-05-01 13:12 41.97880 28.28742 24403 ft 393 kts 314°
2026-05-01 13:12 41.99728 28.25982 24480 ft 401 kts 304°
2026-05-01 13:12 42.01318 28.22825 24570 ft 412 kts 301°
2026-05-01 13:13 42.02915 28.19577 24628 ft 422 kts 302°
2026-05-01 13:13 42.04562 28.16246 24689 ft 432 kts 302°
2026-05-01 13:13 42.06251 28.12856 24784 ft 439 kts 302°
2026-05-01 13:13 42.07967 28.09433 25043 ft 442 kts 302°
2026-05-01 13:14 42.09693 28.05997 25403 ft 443 kts 302°
2026-05-01 13:14 42.11419 28.02564 25742 ft 444 kts 302°
2026-05-01 13:14 42.13154 27.99106 26023 ft 446 kts 302°
2026-05-01 13:14 42.14899 27.95624 26297 ft 449 kts 302°
2026-05-01 13:15 42.16648 27.92131 26571 ft 451 kts 302°
2026-05-01 13:15 42.18377 27.88670 26844 ft 452 kts 302°
2026-05-01 13:15 42.20147 27.85149 27137 ft 454 kts 304°
2026-05-01 13:15 42.22184 27.81879 27517 ft 455 kts 313°
2026-05-01 13:16 42.24572 27.79074 27983 ft 455 kts 321°
2026-05-01 13:16 42.27232 27.76755 28398 ft 456 kts 329°
2026-05-01 13:16 42.30051 27.74770 28781 ft 456 kts 330°
2026-05-01 13:17 42.38412 27.68756 29932 ft 454 kts 329°
2026-05-01 13:17 42.41173 27.66731 30346 ft 453 kts 329°
2026-05-01 13:18 42.46721 27.62644 30937 ft 452 kts 329°
2026-05-01 13:18 42.49486 27.60605 31221 ft 452 kts 329°
2026-05-01 13:18 42.52253 27.58563 31513 ft 452 kts 329°
2026-05-01 13:18 42.55012 27.56528 31799 ft 452 kts 329°
2026-05-01 13:19 42.57771 27.54489 32065 ft 452 kts 328°
2026-05-01 13:19 42.60457 27.52290 32328 ft 450 kts 323°
2026-05-01 13:19 42.65522 27.47291 32879 ft 449 kts 321°
2026-05-01 13:20 42.68020 27.44770 33131 ft 449 kts 321°
2026-05-01 13:20 42.70536 27.42246 33378 ft 449 kts 321°
2026-05-01 13:20 42.73034 27.39758 33637 ft 449 kts 321°
2026-05-01 13:21 42.78108 27.34742 34080 ft 450 kts 322°
2026-05-01 13:21 42.80646 27.32239 34259 ft 452 kts 322°
2026-05-01 13:21 42.85750 27.27202 34261 ft 452 kts 322°
2026-05-01 13:22 42.90803 27.22203 34260 ft 450 kts 322°
2026-05-01 13:22 42.95869 27.17177 34251 ft 449 kts 322°
2026-05-01 13:23 43.00920 27.12156 34254 ft 449 kts 322°
2026-05-01 13:23 43.05968 27.07127 34263 ft 449 kts 322°
2026-05-01 13:24 43.11018 27.02104 34263 ft 449 kts 323°
2026-05-01 13:25 43.18863 26.94959 34264 ft 450 kts 324°
2026-05-01 13:25 43.24080 26.90191 34267 ft 451 kts 324°
2026-05-01 13:26 43.29282 26.85464 34269 ft 452 kts 324°
2026-05-01 13:26 43.34529 26.80686 34274 ft 452 kts 324°
2026-05-01 13:27 43.39777 26.75892 34273 ft 453 kts 324°
2026-05-01 13:27 43.47666 26.68663 34277 ft 454 kts 324°
2026-05-01 13:28 43.55532 26.61431 34282 ft 455 kts 325°
2026-05-01 13:29 43.66050 26.51725 34284 ft 454 kts 325°
2026-05-01 13:31 43.81748 26.37161 34290 ft 452 kts 325°
2026-05-01 13:32 43.94773 26.25005 34293 ft 450 kts 325°
2026-05-01 13:33 44.06980 26.13913 34302 ft 450 kts 327°
2026-05-01 13:34 44.17551 26.04512 34297 ft 451 kts 327°
2026-05-01 13:35 44.25381 25.97484 34297 ft 451 kts 327°
2026-05-01 13:36 44.33269 25.90376 34306 ft 451 kts 327°
2026-05-01 13:36 44.41163 25.83240 34299 ft 452 kts 327°
2026-05-01 13:37 44.46446 25.78452 34293 ft 452 kts 327°
2026-05-01 13:37 44.51726 25.73656 34298 ft 452 kts 327°
2026-05-01 13:38 44.59629 25.66458 34298 ft 451 kts 327°
2026-05-01 13:39 44.64884 25.61659 34294 ft 450 kts 327°
2026-05-01 13:39 44.70108 25.56877 34287 ft 450 kts 327°
2026-05-01 13:40 44.75350 25.52068 34279 ft 449 kts 327°
2026-05-01 13:40 44.80587 25.47254 34281 ft 449 kts 327°
2026-05-01 13:41 44.85812 25.42439 34284 ft 448 kts 327°
2026-05-01 13:41 44.91002 25.37647 34278 ft 449 kts 327°
2026-05-01 13:42 44.96229 25.32810 34279 ft 449 kts 327°
2026-05-01 13:42 45.01460 25.27958 34283 ft 450 kts 327°
2026-05-01 13:43 45.06708 25.23080 34278 ft 451 kts 327°
2026-05-01 13:43 45.11968 25.18180 34272 ft 452 kts 327°
2026-05-01 13:44 45.17208 25.13287 34279 ft 453 kts 327°
2026-05-01 13:44 45.22477 25.08356 34273 ft 453 kts 327°
2026-05-01 13:45 45.27708 25.03448 34271 ft 453 kts 328°
2026-05-01 13:45 45.32964 24.98509 34270 ft 452 kts 328°
2026-05-01 13:46 45.38200 24.93575 34263 ft 450 kts 328°
2026-05-01 13:46 45.43419 24.88647 34268 ft 449 kts 328°
2026-05-01 13:47 45.48590 24.83752 34266 ft 448 kts 328°
2026-05-01 13:47 45.53779 24.78831 34272 ft 447 kts 328°
2026-05-01 13:48 45.58953 24.73912 34259 ft 447 kts 328°
2026-05-01 13:48 45.64129 24.68980 34266 ft 446 kts 328°
2026-05-01 13:49 45.69286 24.64055 34271 ft 445 kts 328°
2026-05-01 13:49 45.74441 24.59122 34265 ft 446 kts 329°
2026-05-01 13:50 45.79567 24.54204 34260 ft 446 kts 329°
2026-05-01 13:50 45.84721 24.49249 34263 ft 447 kts 329°
2026-05-01 13:51 45.89725 24.44427 34256 ft 448 kts 329°
2026-05-01 13:51 45.94916 24.39413 34261 ft 449 kts 329°
2026-05-01 13:52 46.00059 24.34435 34260 ft 450 kts 329°
2026-05-01 13:52 46.05252 24.29397 34255 ft 451 kts 329°
2026-05-01 13:53 46.10436 24.24355 34252 ft 451 kts 329°
2026-05-01 13:53 46.18219 24.16764 34244 ft 451 kts 330°
2026-05-01 13:54 46.23333 24.11762 34256 ft 450 kts 330°
2026-05-01 13:54 46.28519 24.06677 34256 ft 449 kts 330°
2026-05-01 13:55 46.33668 24.01618 34244 ft 449 kts 330°
2026-05-01 13:55 46.38780 23.96583 34257 ft 447 kts 330°
2026-05-01 13:56 46.43922 23.91507 34244 ft 447 kts 330°
2026-05-01 13:56 46.48254 23.87221 34254 ft 447 kts 330°
2026-05-01 13:57 46.53398 23.82121 34252 ft 446 kts 331°
2026-05-01 13:57 46.58484 23.77068 34255 ft 446 kts 331°
2026-05-01 13:58 46.63615 23.71957 34268 ft 445 kts 331°
2026-05-01 13:58 46.68715 23.66865 34264 ft 445 kts 331°
2026-05-01 13:59 46.73794 23.61782 34273 ft 444 kts 332°
2026-05-01 13:59 46.78894 23.56667 34261 ft 444 kts 332°
2026-05-01 14:00 46.83975 23.51559 34258 ft 443 kts 332°
2026-05-01 14:00 46.89045 23.46448 34266 ft 442 kts 332°
2026-05-01 14:01 46.94103 23.41339 34262 ft 442 kts 333°
2026-05-01 14:01 46.99158 23.36222 34263 ft 441 kts 333°
2026-05-01 14:02 47.04175 23.31130 34274 ft 441 kts 333°
2026-05-01 14:02 47.09208 23.26010 34269 ft 440 kts 333°
2026-05-01 14:03 47.14243 23.20876 34278 ft 439 kts 334°
2026-05-01 14:03 47.19252 23.15757 34271 ft 437 kts 334°
2026-05-01 14:04 47.24252 23.10634 34270 ft 436 kts 334°
2026-05-01 14:04 47.28390 23.06386 34278 ft 435 kts 334°
2026-05-01 14:05 47.34140 23.00469 34271 ft 433 kts 334°
2026-05-01 14:05 47.39081 22.95372 34278 ft 432 kts 335°
2026-05-01 14:06 47.43992 22.90295 34276 ft 430 kts 335°
2026-05-01 14:06 47.48893 22.85216 34279 ft 429 kts 335°
2026-05-01 14:07 47.53748 22.80173 34290 ft 428 kts 335°
2026-05-01 14:08 47.61060 22.72557 34289 ft 427 kts 335°
2026-05-01 14:08 47.65924 22.67477 34291 ft 428 kts 335°
2026-05-01 14:09 47.70786 22.62387 34289 ft 428 kts 335°
2026-05-01 14:09 47.75634 22.57300 34289 ft 429 kts 335°
2026-05-01 14:10 47.80516 22.52163 34291 ft 430 kts 335°
2026-05-01 14:10 47.85407 22.47005 34288 ft 430 kts 334°
2026-05-01 14:11 47.90301 22.41830 34286 ft 431 kts 334°
2026-05-01 14:11 47.97624 22.34066 34292 ft 432 kts 334°
2026-05-01 14:12 48.02525 22.28855 34294 ft 433 kts 334°
2026-05-01 14:12 48.07432 22.23624 34286 ft 433 kts 334°
2026-05-01 14:13 48.11516 22.19260 34297 ft 434 kts 334°
2026-05-01 14:13 48.17254 22.13115 34281 ft 434 kts 333°
2026-05-01 14:14 48.22162 22.07846 34281 ft 434 kts 333°
2026-05-01 14:14 48.27070 22.02563 34284 ft 434 kts 333°
2026-05-01 14:15 48.31949 21.97299 34277 ft 434 kts 333°
2026-05-01 14:15 48.36863 21.92030 34276 ft 431 kts 335°
2026-05-01 14:16 48.41923 21.87248 34283 ft 428 kts 338°
2026-05-01 14:16 48.46999 21.82663 34293 ft 428 kts 338°
2026-05-01 14:17 48.52112 21.77996 34279 ft 428 kts 337°
2026-05-01 14:17 48.57192 21.73301 34284 ft 428 kts 337°
2026-05-01 14:18 48.61530 21.69268 34284 ft 429 kts 336°
2026-05-01 14:18 48.65781 21.65305 34281 ft 429 kts 336°
2026-05-01 14:19 48.71694 21.59779 34283 ft 429 kts 336°
2026-05-01 14:19 48.76781 21.55014 34271 ft 429 kts 336°
2026-05-01 14:20 48.84396 21.47860 34287 ft 429 kts 336°
2026-05-01 14:21 48.89462 21.43087 34286 ft 429 kts 336°
2026-05-01 14:21 48.94510 21.38319 34282 ft 429 kts 336°
2026-05-01 14:22 49.01252 21.31933 34283 ft 429 kts 336°
2026-05-01 14:22 49.06332 21.27108 34283 ft 429 kts 336°
2026-05-01 14:23 49.11400 21.22283 34283 ft 429 kts 336°
2026-05-01 14:23 49.16467 21.17446 34298 ft 429 kts 336°
2026-05-01 14:24 49.21498 21.12631 34294 ft 429 kts 336°
2026-05-01 14:24 49.26554 21.07780 34305 ft 428 kts 336°
2026-05-01 14:25 49.31614 21.02918 34306 ft 431 kts 336°
2026-05-01 14:25 49.36956 20.98967 34310 ft 424 kts 347°
2026-05-01 14:26 49.45262 20.94387 34307 ft 424 kts 347°
2026-05-01 14:27 49.50805 20.91253 34282 ft 424 kts 346°
2026-05-01 14:27 49.56339 20.88097 34309 ft 424 kts 346°
2026-05-01 14:28 49.64643 20.83350 34308 ft 424 kts 346°
2026-05-01 14:28 49.70186 20.80173 34292 ft 425 kts 346°
2026-05-01 14:29 49.75733 20.76985 34288 ft 425 kts 346°
2026-05-01 14:30 49.86791 20.70607 34294 ft 425 kts 346°
2026-05-01 14:31 49.95094 20.65797 34290 ft 425 kts 346°
2026-05-01 14:31 50.00633 20.62579 34281 ft 425 kts 346°
2026-05-01 14:32 50.06139 20.59373 34290 ft 424 kts 346°
2026-05-01 14:32 50.11808 20.57412 34292 ft 413 kts
2026-05-01 14:33 50.17489 20.57691 34286 ft 408 kts
2026-05-01 14:33 50.23160 20.58327 34284 ft 408 kts
2026-05-01 14:34 50.28841 20.58918 34288 ft 409 kts
2026-05-01 14:34 50.34525 20.59503 34286 ft 409 kts
2026-05-01 14:35 50.40173 20.60088 34290 ft 409 kts
2026-05-01 14:35 50.45854 20.60678 34196 ft 410 kts
2026-05-01 14:35 50.48714 20.60977 33716 ft 411 kts
2026-05-01 14:36 50.51548 20.61270 33237 ft 403 kts
2026-05-01 14:36 50.54331 20.61558 32740 ft 398 kts
2026-05-01 14:36 50.57076 20.61844 32268 ft 393 kts
2026-05-01 14:36 50.59788 20.62126 31800 ft 388 kts
2026-05-01 14:37 50.62478 20.62406 31347 ft 383 kts
2026-05-01 14:37 50.65125 20.62681 30889 ft 379 kts
2026-05-01 14:37 50.67718 20.62952 30453 ft 376 kts
2026-05-01 14:37 50.70314 20.63223 29953 ft 372 kts
2026-05-01 14:38 50.72879 20.63493 29434 ft 368 kts
2026-05-01 14:38 50.75417 20.63760 28939 ft 365 kts
2026-05-01 14:38 50.77940 20.64026 28425 ft 361 kts
2026-05-01 14:38 50.80447 20.64291 27881 ft 359 kts
2026-05-01 14:39 50.82928 20.64553 27358 ft 357 kts
2026-05-01 14:39 50.85380 20.64812 26848 ft 355 kts
2026-05-01 14:39 50.87831 20.65072 26337 ft 353 kts
2026-05-01 14:39 50.90290 20.65333 25839 ft 353 kts
2026-05-01 14:40 50.92735 20.65592 25341 ft 351 kts
2026-05-01 14:40 50.95171 20.65851 24861 ft 350 kts
2026-05-01 14:40 50.97590 20.66107 24390 ft 348 kts
2026-05-01 14:40 51.00004 20.66363 23925 ft 346 kts
2026-05-01 14:41 51.02397 20.66617 23444 ft 343 kts
2026-05-01 14:41 51.04766 20.66869 22956 ft 340 kts
2026-05-01 14:41 51.07110 20.67118 22469 ft 338 kts
2026-05-01 14:41 51.09473 20.67370 21977 ft 335 kts
2026-05-01 14:42 51.11770 20.67615 21521 ft 333 kts
2026-05-01 14:42 51.14072 20.67861 21051 ft 330 kts
2026-05-01 14:42 51.16355 20.68106 20598 ft 328 kts
2026-05-01 14:42 51.18629 20.68349 20154 ft 326 kts
2026-05-01 14:43 51.20893 20.68593 19716 ft 324 kts
2026-05-01 14:43 51.23071 20.68826 19289 ft 323 kts
2026-05-01 14:43 51.25304 20.69066 18890 ft 320 kts
2026-05-01 14:43 51.27498 20.69302 18510 ft 317 kts
2026-05-01 14:44 51.29649 20.69898 18120 ft 310 kts 19°
2026-05-01 14:44 51.33642 20.72128 17482 ft 299 kts 21°
2026-05-01 14:44 51.35596 20.73198 17199 ft 293 kts 20°
2026-05-01 14:45 51.37508 20.74233 16936 ft 288 kts 20°
2026-05-01 14:45 51.41242 20.76239 16413 ft 278 kts 20°
2026-05-01 14:45 51.43062 20.77213 16150 ft 273 kts 20°
2026-05-01 14:46 51.44851 20.78171 15898 ft 269 kts 20°
2026-05-01 14:46 51.48355 20.80049 15402 ft 267 kts 20°
2026-05-01 14:46 51.50119 20.80997 15157 ft 266 kts 20°
2026-05-01 14:47 51.51870 20.81941 14915 ft 265 kts 20°
2026-05-01 14:47 51.53621 20.82885 14679 ft 265 kts 20°
2026-05-01 14:47 51.55365 20.83827 14434 ft 265 kts 20°
2026-05-01 14:48 51.58863 20.85718 13942 ft 264 kts 20°
2026-05-01 14:48 51.60606 20.86661 13672 ft 264 kts 20°
2026-05-01 14:48 51.64074 20.88538 13146 ft 264 kts 20°
2026-05-01 14:49 51.67557 20.90428 12625 ft 263 kts 20°
2026-05-01 14:49 51.71037 20.92276 12108 ft 262 kts 19°
2026-05-01 14:50 51.73334 20.93474 11780 ft 261 kts 19°
2026-05-01 14:50 51.77487 20.95168 11150 ft 262 kts 357°
2026-05-01 14:51 51.79253 20.94521 10933 ft 262 kts 344°
2026-05-01 14:51 51.82494 20.91895 10526 ft 257 kts 336°
2026-05-01 14:52 51.85626 20.89218 10028 ft 251 kts 337°
2026-05-01 14:52 51.87173 20.87922 9755 ft 249 kts 338°
2026-05-01 14:52 51.90237 20.85368 9232 ft 246 kts 337°
2026-05-01 14:53 51.91733 20.84119 8976 ft 244 kts 337°
2026-05-01 14:53 51.93239 20.82867 8710 ft 243 kts 337°
2026-05-01 14:53 51.94727 20.81627 8460 ft 241 kts 336°
2026-05-01 14:53 51.95971 20.80624 8230 ft 239 kts 342°
2026-05-01 14:54 51.97559 20.80285 7968 ft 231 kts 12°
2026-05-01 14:54 51.99026 20.81278 7780 ft 226 kts 34°
2026-05-01 14:54 52.00150 20.83078 7577 ft 226 kts 54°
2026-05-01 14:54 52.00925 20.85287 7394 ft 225 kts 59°
2026-05-01 14:55 52.01638 20.87546 7179 ft 224 kts 60°
2026-05-01 14:55 52.02241 20.89875 6923 ft 227 kts 77°
2026-05-01 14:55 52.02112 20.92450 6660 ft 235 kts 108°
2026-05-01 14:55 52.01172 20.94621 6416 ft 240 kts 137°
2026-05-01 14:56 51.99768 20.96087 6183 ft 240 kts 148°
2026-05-01 14:56 51.98287 20.97358 5944 ft 239 kts 150°
2026-05-01 14:56 51.96851 20.98587 5699 ft 234 kts 150°
2026-05-01 14:56 51.95404 20.99836 5449 ft 232 kts 149°
2026-05-01 14:57 51.93998 21.01070 5190 ft 233 kts 150°
2026-05-01 14:57 51.91107 21.03571 4999 ft 243 kts 150°
2026-05-01 14:57 51.89596 21.04925 4867 ft 251 kts 143°
2026-05-01 14:58 51.88496 21.07034 4733 ft 243 kts 107°
2026-05-01 14:58 51.88321 21.09645 4620 ft 230 kts 77°
2026-05-01 14:58 51.88815 21.12036 4482 ft 223 kts 59°
2026-05-01 14:58 51.89549 21.14221 4364 ft 219 kts 58°
2026-05-01 14:59 51.90388 21.16210 4149 ft 215 kts 38°
2026-05-01 14:59 51.91706 21.17181 3986 ft 208 kts
2026-05-01 14:59 51.93117 21.16999 3860 ft 201 kts 342°
2026-05-01 14:59 51.94363 21.15994 3720 ft 201 kts 332°
2026-05-01 15:00 51.96833 21.13873 3472 ft 204 kts 334°
2026-05-01 15:00 51.98066 21.12816 3352 ft 196 kts 333°
2026-05-01 15:00 51.99256 21.11786 3242 ft 190 kts 333°
2026-05-01 15:01 52.00406 21.10770 3144 ft 187 kts 332°
2026-05-01 15:01 52.01519 21.09770 3025 ft 181 kts 335°
2026-05-01 15:01 52.02610 21.08861 2988 ft 173 kts 333°
2026-05-01 15:01 52.03643 21.07983 2958 ft 159 kts 334°
2026-05-01 15:02 52.04630 21.07165 2798 ft 161 kts 334°
2026-05-01 15:02 52.04950 21.06893 2750 ft 159 kts 334°
2026-05-01 15:02 52.06526 21.05503 2428 ft 148 kts 335°
2026-05-01 15:02 52.07437 21.04776 2218 ft 142 kts 333°
2026-05-01 15:03 52.08304 21.03951 2022 ft 146 kts 333°
2026-05-01 15:03 52.09188 21.03149 1818 ft 144 kts 337°
2026-05-01 15:03 52.10081 21.02466 1608 ft 140 kts 331°
2026-05-01 15:03 52.10913 21.01678 1453 ft 138 kts 333°
2026-05-01 15:04 52.11770 21.00921 1234 ft 140 kts 333°
2026-05-01 15:04 52.12614 21.00184 1020 ft 139 kts 332°
2026-05-01 15:04 52.13470 20.99387 686 ft 144 kts 329°